Notices

What's New in latest Release from April 7th, 2021:

- Updated Glossary, including Speed of Maximum Gust, and Total Hourly Precipitation

- Updated national and regional climate services offices contacts and prices information

- Addition of station inventory lists for 1981-2010, 1971-2000, and 1961-1990 Normals.

If you haven't already, please take our survey and provide feedback about our website: https://eccc.sondage-survey.ca/f/LanguageSelection.aspx?s=442ca660-fcf1-47c0-95a9-59707d6fd709

Hourly Data Report for December 20, 2020

SHEARWATER RCS
NOVA SCOTIA
Current Station Operator: ECCC - MSC

44°37'47.000" N
63°30'48.000" W
24.00 m
8205092
71264
AAW

Download Data

Hourly Data (December 2020)
Hourly Data Report for December 20, 2020
TIME
LST
Temp Definition
°C
Dew Point Definition
°C
Rel Hum Definition
%
Precip. Amount Definition
mm

Wind Dir Definition
10's deg

Wind Spd Definition
km/h
Visibility Definition
km
Stn Press Definition
kPa
Hmdx Definition


Wind Chill Definition


Weather Definition


00:00 -1.0 -4.7 76 0.0 29 7   102.24   -4 LegendNANA
01:00 -1.3 -4.8 77 0.0 31 4   102.20   -3 LegendNANA
02:00 -1.5 -4.9 78 0.0 33 6   102.20   -4 LegendNANA
03:00 -1.3 -4.7 77 0.0 24 8   102.26   -4 LegendNANA
04:00 -1.7 -4.9 78 0.0 0 1   102.20   -2 LegendNANA
05:00 -1.6 -4.5 81 0.0 23 7   102.23   -4 LegendNANA
06:00 -1.7 -4.6 80 0.0 23 3   102.24   -3 LegendNANA
07:00 -2.6 -4.8 85 0.0 0 1   102.24   -3 LegendNANA
08:00 -1.5 -4.0 83 0.0 21 3   102.25   -3 LegendNANA
09:00 -0.5 -3.9 78 0.0 23 8   102.33   -3 LegendNANA
10:00 0.0 -3.7 76 0.0 25 7   102.30   -2 LegendNANA
11:00 0.7 -3.7 72 0.0 25 7   102.29     LegendNANA
12:00 1.6 -3.6 69 0.0 23 7   102.24     LegendNANA
13:00 2.2 -3.1 68 0.0 22 8   102.22     LegendNANA
14:00 1.6 -3.3 70 0.0 22 8   102.20     LegendNANA
15:00 1.4 -3.5 70 0.0 22 9   102.19     LegendNANA
16:00 0.9 -3.0 75 0.0 21 7   102.19     LegendNANA
17:00 0.1 -3.0 80 0.0 0 1   102.18     LegendNANA
18:00 0.1 -2.5 83 0.0 11 3   102.14     LegendNANA
19:00 2.1 -1.2 79 0.0 17 11   102.17     LegendNANA
20:00 2.3 -0.7 81 0.0 18 9   102.11     LegendNANA
21:00 2.9 -0.4 79 0.0 16 12   102.07     LegendNANA
22:00 2.6 0.2 84 0.0 14 9   102.01     LegendNANA
23:00 2.1 0.1 87 0.0 11 6   101.98     LegendNANA

Notes on Data Quality.

Legend

  • E = Estimated
  • M = Missing
  • NA = Not Available*
  • [empty] = Indicates an unobserved value
Date modified: